Hurghada, Egypt

4:26 PM EET on April 24, 2017 (GMT +0200)
Hurghada International

Weather History for HEGN - October, 2011

Change the Weather History Date:

Monday, October 10, 2011

  Actual Average Record
Temperature  
Mean Temperature 84 °F -  
Max Temperature 98 °F 82 °F 99 °F (2014)
Min Temperature 70 °F 68 °F 66 °F (2013)
Cooling Degree Days 19    
Growing Degree Days 34 (Base 50)    
Moisture  
Dew Point 56 °F    
Average Humidity 38    
Maximum Humidity 58    
Minimum Humidity 20    
Precipitation  
Precipitation 0.00 in - - ()
Sea Level Pressure  
Sea Level Pressure 29.84 in    
Wind  
Wind Speed 3 mph ()    
Max Wind Speed 7 mph    
Max Gust Speed -    
Visibility 6.0 miles    
Events      
Averages and records for this station are not official NWS values.
T = Trace of Precipitation, MM = Missing Value Source: Averaged Metar Reports

Daily Weather History Graph

Daily Weather History Graph

Search for Another Location

Airport or City:

Trip Planner

Search our weather history database for the weather conditions in past years. The results will help you decide how hot, cold, wet, or windy it might be!

Date:

Astronomy

Oct. 10, 2011 Rise Set
Actual Time 5:41 AM EET 5:22 PM EET
Civil Twilight 5:18 AM EET 5:45 PM EET
Nautical Twilight 4:51 AM EET 6:12 PM EET
Astronomical Twilight 4:24 AM EET 6:39 PM EET
Moon 4:14 PM EET (10/10) 4:08 AM EET (10/10)
Length of Visible Light 12h 26m
Length of Day
11h 40m
Waxing Gibbous, 97% of the Moon is Illuminated
Oct 10
Waxing Gibbous
Oct 12
Full
Oct 20
Last Quarter
Oct 26
New
Nov 2
First Quarter

Hourly Weather History & Observations

Time (EET) Temp. Heat Index Dew Point Humidity Pressure Visibility Wind Dir Wind Speed Gust Speed Precip Events Conditions
12:00 AM 75.2 °F - 55.4 °F 50% 29.89 in - Calm Calm - N/A   Clear
1:00 AM 75.2 °F - 50.0 °F 41% 29.86 in - West 5.8 mph - N/A   Clear
2:00 AM 74 °F - 51 °F 33% 29.88 in 6 mi West 3.5 mph - -  
2:00 AM 73.4 °F - 50.0 °F 44% 29.86 in - West 5.8 mph - N/A   Clear
3:00 AM 71.6 °F - 50.0 °F 46% 29.86 in - West 3.5 mph - N/A   Clear
4:00 AM 71.6 °F - 46.4 °F 41% 29.86 in - WSW 3.5 mph - N/A   Clear
5:00 AM 71.6 °F - 46.4 °F 41% 29.86 in - Calm Calm - N/A   Clear
6:00 AM 71.6 °F - 46.4 °F 41% 29.86 in - West 4.6 mph - N/A   Clear
7:00 AM 75.2 °F - 46.4 °F 36% 29.89 in - Calm Calm - N/A   Clear
8:00 AM 82 °F - 48 °F 20% 29.90 in 6 mi Calm Calm - -  
8:00 AM 82.4 °F - 48.2 °F 30% 29.89 in - Calm Calm - N/A   Clear
9:00 AM 89.6 °F - 50.0 °F 26% 29.89 in - Calm Calm - N/A   Clear
10:00 AM 95.0 °F - 51.8 °F 23% 29.89 in - SSE 2.3 mph - N/A   Clear
11:00 AM 96.8 °F 94.4 °F 53.6 °F 23% 29.86 in - ENE 3.5 mph - N/A   Clear
12:00 PM 95.0 °F 94.4 °F 59.0 °F 30% 29.83 in - ESE 6.9 mph - N/A   Clear
1:00 PM 93.2 °F 93.3 °F 60.8 °F 34% 29.83 in - ESE 6.9 mph - N/A   Clear
2:00 PM 94 °F - 59 °F 22% 29.81 in 6 mi ESE 4.6 mph - -  
2:00 PM 95.0 °F 94.4 °F 59.0 °F 30% 29.80 in - ESE 4.6 mph - N/A   Clear
3:00 PM 91.4 °F 96.8 °F 69.8 °F 49% 29.80 in - ESE 5.8 mph - N/A   Clear
4:00 PM 91.4 °F 90.7 °F 59.0 °F 34% 29.77 in - South 5.8 mph - N/A   Clear
5:00 PM 89.6 °F 91.1 °F 64.4 °F 43% 29.77 in - ESE 5.8 mph - N/A   Clear
6:00 PM 86.0 °F 90.4 °F 69.8 °F 58% 29.77 in - SE 4.6 mph - N/A   Clear
7:00 PM 86.0 °F 86.6 °F 62.6 °F 45% 29.80 in - South 3.5 mph - N/A   Clear
8:00 PM 85 °F - 61 °F 34% 29.82 in 6 mi South 5.8 mph - -  
8:00 PM 86.0 °F 86.1 °F 60.8 °F 43% 29.80 in - South 5.8 mph - N/A   Clear
9:00 PM 84.2 °F 85.6 °F 64.4 °F 51% 29.80 in - SE 4.6 mph - N/A   Clear
10:00 PM 80.6 °F 81.5 °F 60.8 °F 51% 29.80 in - South 4.6 mph - N/A   Clear
11:00 PM 78.8 °F - 55.4 °F 44% 29.80 in - Calm Calm - N/A   Clear